This is the latest recevied weather packets stored in our database for station/object KB1JLI. If no packets are shown the sender has not sent any weather packets the latest 10 day(s).
| Time | Temp. | Humidity | Pressure | Rain* | Wind** | Luminosity | Snow |
|---|---|---|---|---|---|---|---|
| 1777383339 | 12.78° C | 56% | 1023.6 hPa | 0 mm | - | 481 W/m² | - |
| 1777383036 | 12.22° C | 59% | 1023.6 hPa | 0 mm | - | 468 W/m² | - |
| 1777382732 | 12.78° C | 60% | 1023.6 hPa | 0 mm | - | 457 W/m² | - |
| 1777382428 | 11.67° C | 60% | 1023.4 hPa | 0 mm | - | 445 W/m² | - |
| 1777382125 | 11.67° C | 59% | 1023.5 hPa | 0 mm | - | 432 W/m² | - |
| 1777381821 | 11.67° C | 59% | 1023.5 hPa | 0 mm | - | 420 W/m² | - |
| 1777381514 | 11.67° C | 60% | 1023.8 hPa | 0 mm | - | 406 W/m² | - |
| 1777381210 | 11.67° C | 61% | 1023.8 hPa | 0 mm | - | 392 W/m² | - |
| 1777380908 | 11.11° C | 59% | 1023.7 hPa | 0 mm | - | 379 W/m² | - |
| 1777380605 | 11.67° C | 65% | 1023.6 hPa | 0 mm | - | 372 W/m² | - |
| 1777380300 | 10.56° C | 69% | 1023.8 hPa | 0 mm | - | 351 W/m² | - |
| 1777379997 | 11.11° C | 67% | 1023.8 hPa | 0 mm | - | 341 W/m² | - |
| 1777379693 | 11.11° C | 66% | 1023.7 hPa | 0 mm | - | 301 W/m² | - |
| 1777379389 | 10.56° C | 69% | 1023.7 hPa | 0 mm | - | 310 W/m² | - |
| 1777379084 | 10.56° C | 69% | 1023.7 hPa | 0 mm | - | 323 W/m² | - |
| 1777378778 | 10.56° C | 70% | 1023.6 hPa | 0 mm | - | 281 W/m² | - |
| 1777378477 | 9.44° C | 74% | 1023.8 hPa | 0 mm | - | 268 W/m² | - |
| 1777378172 | 10° C | 75% | 1023.9 hPa | 0 mm | - | 250 W/m² | - |
| 1777377871 | 9.44° C | 79% | 1023.7 hPa | 0 mm | - | 235 W/m² | - |
| 1777377570 | 8.89° C | 81% | 1023.7 hPa | 0 mm | - | 220 W/m² | - |
| 1777377266 | 8.89° C | 83% | 1023.8 hPa | 0 mm | - | 187 W/m² | - |
| 1777376963 | 8.33° C | 84% | 1023.9 hPa | 0 mm | - | 145 W/m² | - |
| 1777376661 | 8.33° C | 86% | 1024.1 hPa | 0 mm | - | 118 W/m² | - |
| 1777376358 | 8.33° C | 87% | 1024 hPa | 0 mm | - | 102 W/m² | - |
| 1777376057 | 7.78° C | 88% | 1023.9 hPa | 0 mm | - | 90 W/m² | - |
* Rain latest hour (hover to see other rain measurements)
** Current wind speed in m/s (hover to see current wind gust speed)